www.pogodaiklimat.ru

Погода и климат >> Архив погоды >> Россия >> Оренбургская область >> Троицкое Т


ПОГОДА в Троицком Т

  • Прогноз погоды в Троицком Т
  • Монитор погоды в Троицком Т

АРХИВ ПОГОДЫ в Троицком Т

Время (UTC), дата Ветер
(напр.,м/с)
 
Видим.   Явления Облачность Т
(С)
Тd
(С)
f
(%)
Тe
(С)
Тes
(С)
Комфортность P
(гПа)
Po
(гПа)
Тmin
(С)
Tmax
(С)
R
(мм)
R24
(мм)
S
(см)
21 11.01 штиль 0 10 км 9/0
[Ac lent]
-17.6 -19.8 83 -18 -18 1025.8 995.0
00 12.01 штиль 0 10 км 10/0
[Ac und]
-16.2 -18.2 85 -16 -16 1023.1 992.5
03 12.01 Ю 2 4000 м слаб. снег 10/10 180 м
[Sc]
-11.5 -12.5 92 -16 -16 1019.8 989.8 -19.6 0.5 28
06 12.01 Ю 4 1000 м сильн. снег 10/10 120 м
[Frnb Ns]
-9.3 -9.7 97 -16 -16 1017.7 988.0
09 12.01 Ю 5
{11}
2000 м снег 10/10 150 м
[Frnb Ns]
-7.7 -8.7 93 -15 -15 1015.4 986.0
12 12.01 Ю 5 1000 м сильн. снег 10/10 120 м
[Frnb Ns]
-5.4 -6.2 94 -13 -13 1013.8 984.7
15 12.01 Ю 4 1000 м сильн. снег 10/10 120 м
[Frnb Ns]
-3.0 -3.5 96 -9 -9 1012.6 983.7 -3.0 17
18 12.01 Ю 6
{12}
500 м сильн. снег {метель} 10/10 120 м
[Frnb Ns]
-1.7 -2.0 98 -9 -9 1011.0 982.4
21 12.01 Ю 7-12
{13}
2000 м снег {метель} 10/10 150 м
[Frnb Ns]
-3.0 -3.4 97 -11 -11 1009.7 981.0
00 13.01 Ю 4
{12}
2000 м снег {метель} 10/10 120 м
[Frnb Ns]
-3.5 -4.0 96 -10 -10 1009.5 980.7
03 13.01 Ю 4 10 км {снег} 10/10 240 м
[Sc]
-3.2 -3.7 96 -10 -10 1008.3 979.6 -3.7 12 50
06 13.01 Ю 5 4000 м слаб. снег 10/10 210 м
[Sc]
-1.4 -1.8 97 -8 -8 1008.5 979.9
09 13.01 ЮЗ 6
{13}
20 км {снег} 10/10 630 м
[Sc]
-2.2 -3.3 92 -10 -10 1008.7 980.0
12 13.01 Ю 1 20 км {снег} 10/5 600 м
[Cb cap Ac lent]
-4.4 -5.5 92 -7 -7 1009.1 980.3
15 13.01 З 1 10 км 10/10 270 м
[Sc]
-4.8 -5.8 93 -7 -7 1009.2 980.2 -1.3 0.4
18 13.01 В 1 4000 м слаб. снег 10/10 180 м
[Sc]
-5.0 -5.6 96 -8 -8 1008.0 979.1
21 13.01 СЗ 1 2000 м снег 10/10 150 м
[Frnb Ns]
-5.1 -5.7 96 -8 -8 1006.9 978.0
00 14.01 СЗ 1 2000 м снег 10/10 120 м
[Frnb Ns]
-5.6 -6.6 93 -8 -8 1006.3 977.4
03 14.01 СЗ 2 10 км {снег} 10/10 660 м
[Sc]
-7.6 -8.7 92 -12 -12 1007.1 977.9 -8.5 4 52
06 14.01 З 1 10 км слаб. снег 10/10 270 м
[Sc]
-6.4 -7.5 92 -9 -9 1008.5 979.4
09 14.01 З 1 10 км слаб. снег 9/9 300 м
[Sc]
-5.4 -6.9 89 -8 -8 1008.9 980.0
12 14.01 СЗ 1 20 км {снег} 3/3 600 м
[Sc]
-9.8 -10.9 92 -12 -12 1010.7 981.2
15 14.01 С 1 10 км 8/4 600 м
[Sc Ci sp]
-12.5 -13.4 93 -15 -15 1012.5 982.6 -4.4 0.3
18 14.01 штиль 0 10 км 10/10 570 м
[Sc]
-13.0 -13.3 98 -13 -13 1014.2 984.2
21 14.01 штиль 0 10 км 10/10 300 м
[Sc]
-10.5 -11.6 92 -11 -11 1015.0 985.3
00 15.01 штиль 0 10 км 10/10 270 м
[Sc]
-10.7 -11.9 91 -11 -11 1015.9 986.1
03 15.01 ЮЗ 1 10 км {снег} 10/10 240 м
[Sc]
-10.7 -11.7 92 -13 -13 1017.2 987.4 -15.8 0.0 53
06 15.01 ЮВ 1 2000 м слаб. снег 10/10 300 м
[Sc]
-10.3 -11.4 92 -13 -13 1018.3 988.5
09 15.01 штиль 0 4000 м дымка {снег} 6/0
[Ac lent]
-10.7 -12.7 85 -11 -10 1018.9 989.0
12 15.01 штиль 0 4000 м дымка {снег} 9/0
[Ac lent Ci]
-14.6 -15.8 91 -15 -15 1020.1 989.7
15 15.01 СЗ 1 10 км 9/0
[Ci]
-18.7 -19.6 93 -22 -22 1021.8 990.9 -9.3 0.2
18 15.01 В 1 10 км 10/10 240 м
[Sc]
-13.1 -14.3 91 -15 -15 1021.4 991.2
21 15.01 штиль 0 10 км слаб. снег 9/9 270 м
[Sc]
-11.4 -12.6 91 -12 -12 1021.1 991.1
00 16.01 ЮВ 2 10 км {снег} 9/3 600 м
[Sc Ci]
-11.3 -11.9 95 -16 -16 1021.8 991.8
03 16.01 ЮВ 1 10 км 9/1 600 м
[Sc Ci]
-14.5 -15.1 95 -17 -17 1022.0 991.6 -18.7 0.0 50
06 16.01 штиль 0 20 км 9/1 600 м
[Sc Ci]
-15.2 -15.9 94 -15 -14 1022.8 992.3
09 16.01 ЮВ 1 20 км 9/0
[Cc]
-9.2 -13.6 70 -11 -10 1020.8 991.0
12 16.01 ЮВ 1 20 км 9/0
[Ac trans Ci]
-9.0 -13.3 71 -11 -11 1019.6 989.9
15 16.01 В 1 10 км 10/0
[Cs]
-10.8 -13.4 81 -13 -13 1018.7 988.8 -7.9
18 16.01 В 5 10 км 9/0
[Ac lent Ci]
-7.1 -12.7 64 -14 -14 1016.3 986.9
21 16.01 ЮВ 3 10 км 9/0
[Ac lent]
-7.9 -13.6 64 -13 -13 1015.6 986.1
00 17.01 ЮВ 5 10 км 10/0
[Ac lent]
-8.6 -14.7 61 -16 -16 1014.9 985.4
03 17.01 ЮВ 4 4000 м слаб. снег 10/10 500 м
[Sc]
-8.3 -12.2 73 -15 -15 1013.2 983.3 -10.8 0.2 50
06 17.01 ЮВ 4 2000 м снег 10/10 180 м
[Frnb Ns]
-7.3 -8.5 91 -14 -14 1011.6 982.3
09 17.01 Ю 3 4000 м слаб. ливневой снег 10/10 150 м
[Sc]
-5.1 -6.0 93 -11 -11 1010.9 981.9
12 17.01 ЮВ 1 10 км в посл. час ливневой снег 10/10 480 м
[Cb cap]
-5.3 -6.2 93 -8 -8 1011.2 982.2
15 17.01 штиль 0 10 км {ливн. осадки} 10/10 360 м
[Sc]
-5.8 -6.6 94 -7 -7 1013.0 983.9 -5.1 3
18 17.01 С 1 10 км {ливн. осадки} 9/9 360 м
[Cb cap]
-5.3 -6.5 91 -8 -8 1014.9 985.7
21 17.01 СВ 2 10 км 10/10 360 м
[Cb cap]
-5.5 -5.9 97 -10 -10 1016.3 987.1
00 18.01 С 1 4000 м дымка 10/10 240 м
[Cb cap]
-6.7 -7.6 93 -9 -9 1017.4 988.1
03 18.01 СЗ 2 2000 м дымка 10/10 180 м
[St]
-7.5 -8.2 95 -12 -12 1018.4 988.9 -7.5 51
06 18.01 З 2 2000 м дымка 10/10 150 м
[St]
-8.5 -9.4 93 -13 -13 1019.6 989.9 -8.5
09 18.01 З 1 10 км 10/10 180 м
[Sc]
-7.6 -8.4 94 -10 -10 1018.9 989.4
12 18.01 Ю 1 10 км 10/10 180 м
[Sc]
-9.5 -10.5 92 -12 -12 1019.1 989.3
15 18.01 Ю 1 4000 м дымка 10/10 150 м
[St]
-11.0 -12.1 92 -13 -13 1019.9 989.9 -7.3

 

Местоположение метеостанции Троицкое Т (Оренбургская область, Россия): широта 52.33 долгота 56.37 высота над уровнем моря 229 м.

В архиве по умолчанию представлена погода в Троицком Т за последнюю неделю. Архивные данные за месяц целиком и за предыдущие месяцы, начиная с января 2011 года, Вы можете получить, выбрав интересующий диапазон дат из раскрывающегося списка и нажав кнопку "Ввод!".


*Определитесь, кто Вы:
робот инопланетянин человек

Внимание! Время в таблицах - всемирное. Для получения местного времени необходимо прибавить поправку, которая равна 5 ч.

Смотрите также архив погоды в соседних городах и на ближайших метеорологических станциях:

Погода в Кумертау (Башкирия, Россия) (62 км)
Погода в Зилаире (Башкирия, Россия) (71 км)
Погода в Шульган-Таше (Башкирия, Россия) (93 км)
Погода в Татарской Каргале (Оренбургская область, Россия) (95 км)
Погода в Беляевке (Оренбургская область, Россия) (101 км)
Погода в Старосубхангулово (Башкирия, Россия) (112 км)
Погода в Оренбурге (Оренбургская область, Россия) (113 км)
Погода в Салавате (Башкирия, Россия) (117 км)
Погода в Кувандыке (Оренбургская область, Россия) (118 км)
Погода в Федоровке (Башкирия, Россия) (122 км)

Пояснения к столбцам:

Ветер - указаны скорость ветра в м/с - средняя за 10 мин, порывы в срок и между сроками (в фигурных скобках) и направление, откуда дует ветер: С - северный, СВ - северо-восточный, В - восточный, ЮВ - юго-восточный, Ю - южный, ЮЗ - юго-западный, З - западный, СЗ - северо-западный.
Видимость - горизонтальная дальность видимости в метрах или километрах. При видимости от 1 до 10 км при отсутствии осадков обычно наблюдается дымка, при ухудшении видимости до 1 км и менее - туман. В сухую погоду видимость может ухудшаться дымом, пылью или мглою.
Явления - указаны атмосферные явления, наблюдавшиеся в срок или в последний час перед сроком; фигурными скобками обозначены явления, наблюдавшиеся между сроками (за 1-3 часа до срока); квадратными скобками обозначены град или гололедные отложения с указанием их диаметра в мм.
Облачность - указаны через наклонную черту общая и нижняя облачность в баллах и высота нижней границы облаков в метрах; квадратными скобками обозначены формы облаков: Ci - перистые, Cs - перисто-слоистые, Cc - перисто-кучевые, Ac - высококучевые, As - высокослоистые, Sc - слоисто-кучевые, Ns - слоисто-дождевые, Cu - кучевые, Cb - кучево-дождевые. Подробнее классификацию облаков см. в Атласе облаков (PDF).
T - Температура воздуха - температура, измеренная на высоте 2 м над землей.
Td - Температура точки росы - температура, при понижении до которой содержащийся в воздухе водяной пар достигнет насыщения.
f - Относительная влажность воздуха - влажноcть воздуха, измеренная на высоте 2 м над землей.
Te - Эффективная температура - температура, которую ощущает одетый по сезону человек в тени. Характеристика душности погоды. При расчете учитывается влияние влажности воздуха и скорости ветра на теплоощущения человека.
Tes - Эффективная температура на солнце - температура, которую ощущает человек, с поправкой на солнечный нагрев. Характеристика знойности погоды. Зависит от высоты солнца над горизонтом, облачности и скорости ветра. Ночью, в пасмурную погоду, а также при ветре 12 м/с и более поправка равна нулю.
P - Атмосферное давление - приведенное к уровню моря атмосферное давление.
Po - Атмосферное давление - измеренное на уровне метеостанции атмосферное давление.
Tmin - Минимальная температура - минимум температуры воздуха на высоте 2 м над землей.
Tmax - Максимальная температура - максимум температуры воздуха на высоте 2 м над землей.
R - Количество осадков - Количество выпавших осадков за период времени, мм. При наведении курсора мыши на число - период времени, за который выпало указанное количество осадков.
R24 - Количество осадков - Количество выпавших осадков за 24 часа, мм.
S - Снежный покров - Высота снежного покрова, см. При наведении курсора мыши на число - состояние снежного покрова и степень покрытия местности в баллах.